Location: Marsån
(66.4167°N, 22.2833°E)
Time: 10:59:23
(UTC+00:00)

ERS-1 Rocket - Pass Details

Date: 24 February 2024
Orbit: 750 x 755 km, 98.3° (Epoch: 16 April)

Event Time Altitude Azimuth Distance (km) Brightness Sun altitude
Exits shadow 18:25:13 34° 128° (SE) 1,241 3.6 -18.6°
Maximum altitude 18:27:20 64° 60° (ENE) 844 3.0 -18.8°
Drops below altitude 10° 18:32:20 10° 340° (NNW) 2,296 6.0 -19.3°
Sets 18:34:39 0° 338° (NNW) 3,223 6.9 -19.5°
